Regional Weather Roundup
Issued by NWS Sioux Falls, SD

Home | Current Version | Previous Version | Text Only | Print | Product List | Glossary Off
Versions: 1 2 3 4 5 6 7 8 9 10 11 12 13 14 15 16 17 18 19 20 21 22 23 24 25 26 27 28 29 30 31 32 33 34 35 36 37 38 39 40 41 42 43 44 45 46 47 48 49 50

000
ASUS43 KFSD 282002
RWRFSD

WEATHER ROUNDUP FOR SE SOUTH DAKOTA/SW MINNESOTA/NW IOWA
NATIONAL WEATHER SERVICE SIOUX FALLS SD
300 PM CDT SUN AUG 28 2016

NOTE: "FAIR" INDICATES FEW OR NO CLOUDS BELOW 12,000 FEET WITH NO
SIGNIFICANT WEATHER AND OR OBSTRUCTIONS TO VISIBILITY.


SDZ038>040-050-052>070-282100-
SOUTHEAST SOUTH DAKOTA

CITY           SKY/WX    TMP DP  RH WIND       PRES   REMARKS
BROOKINGS      SUNNY     85  73  67 S21       30.03F
CHAMBERLAIN    SUNNY     96  63  33 S17G25    29.95S HX  97
HURON          SUNNY     90  69  50 S18G28    29.94F
MADISON        FAIR      84  75  74 S16G24    30.04F
MITCHELL       SUNNY     91  68  46 S21G28    29.98F HX  95
SIOUX FALLS    MOSUNNY   88  73  61 S18       30.04F HX  95
WINNER         FAIR      97  62  31 S17       29.96F HX  98
YANKTON        SUNNY     90  70  51 SE22      30.00F HX  95
$$

MNZ071-072-080-081-089-090-097-098-282100-
SOUTHWEST MINNESOTA

CITY           SKY/WX    TMP DP  RH WIND       PRES   REMARKS
FAIRMONT       MOSUNNY   84  70  62 S14       30.11F
JACKSON          N/A     82  68  61 S12G17    30.11F
LUVERNE        PTSUNNY   84  70  61 S13       30.07F
MARSHALL       SUNNY     86  74  67 S20       30.04F
MONTEVIDEO     SUNNY     84  73  70 S12       30.05F
REDWOOD FALLS  MOSUNNY   83  71  67 S18       30.07F
TRACY          MOSUNNY   85  74  70 S14G21    30.07F
WINDOM         MOSUNNY   84  72  65 SE13      30.10F
WORTHINGTON    MOSUNNY   83  72  69 S13G22    30.10F
$$

IAZ001>003-012>014-020>022-031-032-NEZ013-014-SDZ071-282100-
NORTHWEST IOWA

CITY           SKY/WX    TMP DP  RH WIND       PRES   REMARKS
CHEROKEE       CLOUDY    86  74  67 S13       30.09F
DENISON        HAZE      86  73  66 S8        30.07F VSB<1/4
ESTHERVILLE    SUNNY     83  72  69 S16       30.11F
LE MARS        MOSUNNY   90  72  55 S14G20    30.07F HX  96
ORANGE CITY    MOSUNNY   86  73  66 S12G18    30.08F
SHELDON        MOSUNNY   86  75  70 S15       30.07F HX  95
SIOUX CITY     MOSUNNY   87  74  64 S13       30.06F HX  95
SPENCER        MOSUNNY   86  71  60 SE13      30.10F
STORM LAKE     PTSUNNY   82  75  78 SE9G15    30.11F
$$

ABBREVIATIONS USED IN REMARKS
   TC - TEMPERATURE IN CELSIUS
  WCI - WIND CHILL INDEX
   HX - HEAT INDEX
  VSB - VISIBILITY





USA.gov is the U.S. government's official web portal to all federal, state and local government web resources and services.